Location: Quedlinburg
(51.7921°N, 11.1414°E)
Time: 18:27:17
(UTC+01:00)

CUTE-I - Visible Passes

Search period start: 14 March 2026 00:00
Search period end: 24 March 2026 00:00
Orbit: 803 x 819 km, 98.7° (Epoch: 13 March)

Date Brightness Start Highest point End Pass type
(mag) Time Alt. Az. Time Alt. Az. Time Alt. Az.
14 Mar ? 19:30:14 10° WSW 19:32:08 12° W 19:34:03 10° WNW visible
15 Mar ? 05:56:25 10° NNE 06:01:03 30° E 06:05:41 10° SSE visible
15 Mar ? 19:04:43 10° SW 19:08:19 18° W 19:11:57 10° NW visible
16 Mar ? 05:33:28 10° NE 05:37:21 20° E 05:41:13 10° SE visible
17 Mar ? 05:11:04 10° ENE 05:13:33 13° E 05:16:02 10° ESE visible
18 Mar ? 19:37:31 10° W 19:38:23 10° W 19:39:14 10° WNW visible
19 Mar ? 19:11:15 10° SW 19:14:32 16° W 19:17:50 10° NW visible
20 Mar ? 05:39:25 10° NE 05:43:33 23° E 05:47:40 10° SE visible
21 Mar ? 05:16:48 10° NE 05:19:47 15° E 05:22:44 10° ESE visible
23 Mar ? 19:17:50 10° WSW 19:20:44 15° W 19:23:39 10° NW visible
